Tracking 35048 objects as of 19-Aug-2026
HD Live streaming from Space Station
objects crossing your sky now

GALILEO 32 (137)

Track GALILEO 32 (137) now!
GALILEO 32 (137) is classified as:


NORAD ID: 61182
Int'l Code: 2024-167A
Launch date: September 17, 2024
Source: European Space Agency (ESA)
Launch site: AIR FORCE EASTERN TEST RANGE (AFETR)
Your satellite tracking list
Your tracking list is empty




NASA's NSSDC Master Catalog

Two Line Element Set (TLE):
1 61182U 24167A   26231.10569515  .00000054  00000-0  00000-0 0  9993
2 61182  55.1722 219.5873 0006150 235.4903 187.7883  1.70473944 11952
Source of the keplerian elements: AFSPC